Location: Rowland
(34.5359°N, 79.2929°W)
Time: 19:14:05
(UTC+00:00)

Vanguard 2 - Pass Details

Date: 06 October 2022
Orbit: 553 x 2933 km, 32.9° (Epoch: 06 December)

Event Time Altitude Azimuth Distance (km) Brightness Sun altitude
Rises 23:50:57 0° 283° (WNW) 6,301 14.0 -12.2°
Reaches altitude 10° 23:55:15 10° 277° (W) 5,493 13.4 -13.1°
Maximum altitude 00:10:26 40° 216° (SW) 3,835 11.3 -16.2°
Drops below altitude 10° 00:25:08 10° 155° (SSE) 5,283 11.5 -19.2°
Sets 00:29:14 0° 147° (SSE) 6,043 11.7 -20.1°
